Time,TemperatureF,DewpointF,PressureIn,WindDirection,WindDirectionDegrees,WindSpeedMPH,WindSpeedGustMPH,Humidity,HourlyPrecipIn,Conditions,Clouds,dailyrainin,SoftwareType,DateUTC
2013-09-03 00:00:00,66.7,64.0,29.90,NW,306,0.0,0.0,91,0.00,,,0.00,Wunderground v.1.15,2013-09-03 04:00:00,
2013-09-03 00:05:00,66.7,64.0,29.90,NW,306,0.0,0.0,91,0.00,,,0.00,Wunderground v.1.15,2013-09-03 04:05:00,
2013-09-03 00:10:00,66.8,64.1,29.90,NW,306,0.0,0.0,91,0.00,,,0.00,Wunderground v.1.15,2013-09-03 04:10:00,
2013-09-03 00:15:00,66.9,64.2,29.90,NW,306,0.0,0.0,91,0.00,,,0.00,Wunderground v.1.15,2013-09-03 04:15:00,
2013-09-03 00:20:00,66.9,64.2,29.90,NW,306,0.0,0.0,91,0.00,,,0.00,Wunderground v.1.15,2013-09-03 04:20:00,
2013-09-03 00:25:00,66.9,64.2,29.89,NW,306,0.0,0.0,91,0.00,,,0.00,Wunderground v.1.15,2013-09-03 04:25:00,
2013-09-03 00:30:00,66.9,64.2,29.89,NW,306,0.0,0.0,91,0.00,,,0.00,Wunderground v.1.15,2013-09-03 04:30:00,
2013-09-03 00:40:00,66.9,64.2,29.89,NW,306,0.0,0.0,91,0.00,,,0.00,Wunderground v.1.15,2013-09-03 04:40:00,
2013-09-03 00:45:00,66.8,64.1,29.89,NW,306,0.0,0.0,91,0.00,,,0.00,Wunderground v.1.15,2013-09-03 04:45:00,
2013-09-03 00:55:00,66.7,64.0,29.89,NW,306,0.0,0.0,91,0.00,,,0.00,Wunderground v.1.15,2013-09-03 04:55:00,
2013-09-03 01:00:00,66.6,63.9,29.88,NW,306,0.0,0.0,91,0.00,,,0.00,Wunderground v.1.15,2013-09-03 05:00:00,
2013-09-03 01:05:00,66.6,63.9,29.88,NW,306,0.0,0.0,91,0.00,,,0.00,Wunderground v.1.15,2013-09-03 05:05:00,
2013-09-03 01:10:00,66.5,63.8,29.88,NW,306,0.0,0.0,91,0.00,,,0.00,Wunderground v.1.15,2013-09-03 05:10:00,
2013-09-03 01:15:00,66.5,63.8,29.87,NW,306,0.0,0.0,91,0.00,,,0.00,Wunderground v.1.15,2013-09-03 05:15:00,
2013-09-03 01:25:00,66.5,63.8,29.86,NW,306,0.0,0.0,91,0.00,,,0.00,Wunderground v.1.15,2013-09-03 05:25:00,
2013-09-03 01:30:00,66.5,63.8,29.86,NW,306,0.0,0.0,91,0.00,,,0.00,Wunderground v.1.15,2013-09-03 05:30:00,
2013-09-03 01:40:00,66.5,64.1,29.85,NW,306,0.0,0.0,92,0.00,,,0.00,Wunderground v.1.15,2013-09-03 05:40:00,
2013-09-03 01:45:00,66.4,64.0,29.84,NW,306,0.0,0.0,92,0.00,,,0.00,Wunderground v.1.15,2013-09-03 05:45:00,
2013-09-03 01:50:00,66.4,64.0,29.84,NW,306,0.0,0.0,92,0.00,,,0.00,Wunderground v.1.15,2013-09-03 05:50:00,
2013-09-03 01:55:00,66.4,64.0,29.83,NW,306,0.0,0.0,92,0.00,,,0.00,Wunderground v.1.15,2013-09-03 05:55:00,
2013-09-03 02:00:00,66.3,63.9,29.82,NW,306,0.0,0.0,92,0.00,,,0.00,Wunderground v.1.15,2013-09-03 06:00:00,
2013-09-03 02:10:00,66.3,63.9,29.81,NW,306,0.0,0.0,92,0.00,,,0.00,Wunderground v.1.15,2013-09-03 06:10:00,
2013-09-03 02:15:00,66.4,64.0,29.84,WNW,290,0.0,3.0,92,0.00,,,0.00,Wunderground v.1.15,2013-09-03 06:15:00,
2013-09-03 02:20:00,66.5,64.1,29.84,WNW,287,1.0,1.0,92,0.00,,,0.00,Wunderground v.1.15,2013-09-03 06:20:00,
2013-09-03 02:25:00,66.6,64.2,29.84,WNW,287,1.0,1.0,92,0.00,,,0.01,Wunderground v.1.15,2013-09-03 06:25:00,
2013-09-03 02:30:00,66.6,64.2,29.84,WNW,288,0.0,0.0,92,0.00,,,0.01,Wunderground v.1.15,2013-09-03 06:30:00,
2013-09-03 02:40:00,66.7,64.3,29.84,WNW,294,0.0,0.0,92,0.00,,,0.01,Wunderground v.1.15,2013-09-03 06:40:00,
2013-09-03 02:45:00,66.7,64.3,29.85,WNW,294,0.0,0.0,92,0.00,,,0.01,Wunderground v.1.15,2013-09-03 06:45:00,
2013-09-03 02:55:00,66.8,64.4,29.85,WNW,294,0.0,0.0,92,0.00,,,0.01,Wunderground v.1.15,2013-09-03 06:55:00,
2013-09-03 03:00:00,66.7,64.3,29.85,WNW,294,0.0,0.0,92,0.00,,,0.01,Wunderground v.1.15,2013-09-03 07:00:00,
2013-09-03 03:10:00,66.7,64.3,29.86,NNW,341,0.0,1.0,92,0.00,,,0.01,Wunderground v.1.15,2013-09-03 07:10:00,
2013-09-03 03:15:00,66.7,64.3,29.85,NNW,341,0.0,1.0,92,0.00,,,0.01,Wunderground v.1.15,2013-09-03 07:15:00,
2013-09-03 03:25:00,66.7,64.3,29.84,NNW,341,0.0,0.0,92,0.00,,,0.01,Wunderground v.1.15,2013-09-03 07:25:00,
2013-09-03 03:30:00,66.6,64.2,29.84,NNW,341,0.0,0.0,92,0.00,,,0.01,Wunderground v.1.15,2013-09-03 07:30:00,
2013-09-03 03:40:00,66.5,64.1,29.85,NNW,341,0.0,0.0,92,0.00,,,0.01,Wunderground v.1.15,2013-09-03 07:40:00,
2013-09-03 03:45:00,66.4,64.0,29.86,NNW,341,0.0,0.0,92,0.00,,,0.01,Wunderground v.1.15,2013-09-03 07:45:00,
2013-09-03 03:55:00,66.1,63.7,29.86,NNW,341,0.0,0.0,92,0.00,,,0.01,Wunderground v.1.15,2013-09-03 07:55:00,
2013-09-03 04:00:00,65.9,63.5,29.86,NNW,336,0.0,0.0,92,0.00,,,0.01,Wunderground v.1.15,2013-09-03 08:00:00,
2013-09-03 04:05:00,65.9,63.5,29.86,NNW,336,0.0,0.0,92,0.00,,,0.01,Wunderground v.1.15,2013-09-03 08:05:00,
2013-09-03 04:10:00,65.9,63.5,29.86,NNW,336,0.0,0.0,92,0.00,,,0.01,Wunderground v.1.15,2013-09-03 08:10:00,
2013-09-03 04:15:00,65.9,63.5,29.85,NNW,336,0.0,0.0,92,0.00,,,0.01,Wunderground v.1.15,2013-09-03 08:15:00,
2013-09-03 04:25:00,65.9,63.5,29.85,NNW,336,0.0,0.0,92,0.00,,,0.01,Wunderground v.1.15,2013-09-03 08:25:00,
2013-09-03 04:35:00,65.8,63.4,29.85,NNW,336,0.0,0.0,92,0.00,,,0.01,Wunderground v.1.15,2013-09-03 08:35:00,
2013-09-03 04:40:00,65.7,63.3,29.86,NNW,336,0.0,0.0,92,0.00,,,0.01,Wunderground v.1.15,2013-09-03 08:40:00,
2013-09-03 04:45:00,65.7,63.3,29.86,NNW,336,0.0,0.0,92,0.00,,,0.01,Wunderground v.1.15,2013-09-03 08:45:00,
2013-09-03 04:55:00,65.7,63.3,29.87,WNW,286,0.0,4.0,92,0.00,,,0.01,Wunderground v.1.15,2013-09-03 08:55:00,
2013-09-03 05:00:00,65.8,63.4,29.86,NW,311,1.0,1.0,92,0.00,,,0.01,Wunderground v.1.15,2013-09-03 09:00:00,
2013-09-03 05:10:00,65.8,63.4,29.86,NW,311,0.0,0.0,92,0.00,,,0.01,Wunderground v.1.15,2013-09-03 09:10:00,
2013-09-03 05:15:00,65.7,63.3,29.86,NW,311,0.0,0.0,92,0.00,,,0.01,Wunderground v.1.15,2013-09-03 09:15:00,
2013-09-03 05:20:00,65.6,63.2,29.86,NW,311,0.0,2.0,92,0.00,,,0.01,Wunderground v.1.15,2013-09-03 09:20:00,
2013-09-03 05:25:00,65.6,63.2,29.86,NW,311,0.0,2.0,92,0.00,,,0.01,Wunderground v.1.15,2013-09-03 09:25:00,
2013-09-03 05:35:00,65.5,63.1,29.86,NW,311,0.0,1.0,92,0.00,,,0.01,Wunderground v.1.15,2013-09-03 09:35:00,
2013-09-03 05:40:00,65.5,63.1,29.86,NW,311,0.0,0.0,92,0.00,,,0.01,Wunderground v.1.15,2013-09-03 09:40:00,
2013-09-03 05:45:00,65.4,63.0,29.87,NW,311,0.0,0.0,92,0.00,,,0.01,Wunderground v.1.15,2013-09-03 09:45:00,
2013-09-03 05:55:00,65.4,63.0,29.87,NW,311,0.0,1.0,92,0.00,,,0.01,Wunderground v.1.15,2013-09-03 09:55:00,
2013-09-03 06:00:00,65.3,62.9,29.87,NW,311,0.0,0.0,92,0.00,,,0.01,Wunderground v.1.15,2013-09-03 10:00:00,
2013-09-03 06:10:00,65.3,62.9,29.87,NW,311,0.0,0.0,92,0.00,,,0.01,Wunderground v.1.15,2013-09-03 10:10:00,
2013-09-03 06:15:00,65.3,62.9,29.87,NW,311,0.0,0.0,92,0.00,,,0.01,Wunderground v.1.15,2013-09-03 10:15:00,
2013-09-03 06:20:00,65.2,62.8,29.87,NW,311,0.0,0.0,92,0.00,,,0.01,Wunderground v.1.15,2013-09-03 10:20:00,
2013-09-03 06:25:00,65.2,62.8,29.88,NW,311,0.0,0.0,92,0.00,,,0.01,Wunderground v.1.15,2013-09-03 10:25:00,
2013-09-03 06:30:00,65.3,62.9,29.88,NW,311,0.0,0.0,92,0.00,,,0.01,Wunderground v.1.15,2013-09-03 10:30:00,
2013-09-03 06:40:00,65.4,63.0,29.88,NW,311,0.0,0.0,92,0.00,,,0.01,Wunderground v.1.15,2013-09-03 10:40:00,
2013-09-03 06:45:00,65.4,63.0,29.89,NW,311,0.0,0.0,92,0.00,,,0.01,Wunderground v.1.15,2013-09-03 10:45:00,
2013-09-03 06:55:00,65.5,63.1,29.89,NW,311,0.0,0.0,92,0.00,,,0.01,Wunderground v.1.15,2013-09-03 10:55:00,
2013-09-03 07:00:00,65.5,63.1,29.89,NW,311,0.0,0.0,92,0.00,,,0.01,Wunderground v.1.15,2013-09-03 11:00:00,
2013-09-03 07:05:00,65.5,63.1,29.90,NW,311,0.0,0.0,92,0.00,,,0.01,Wunderground v.1.15,2013-09-03 11:05:00,
2013-09-03 07:10:00,65.5,63.1,29.90,NW,311,0.0,0.0,92,0.00,,,0.01,Wunderground v.1.15,2013-09-03 11:10:00,
2013-09-03 07:15:00,65.5,63.1,29.90,NW,311,0.0,0.0,92,0.00,,,0.01,Wunderground v.1.15,2013-09-03 11:15:00,
2013-09-03 07:25:00,65.6,63.2,29.90,NW,311,0.0,0.0,92,0.00,,,0.01,Wunderground v.1.15,2013-09-03 11:25:00,
2013-09-03 07:30:00,65.6,63.2,29.90,NW,311,0.0,0.0,92,0.00,,,0.01,Wunderground v.1.15,2013-09-03 11:30:00,
2013-09-03 07:35:00,65.6,63.2,29.90,NW,311,0.0,0.0,92,0.00,,,0.01,Wunderground v.1.15,2013-09-03 11:35:00,
2013-09-03 07:40:00,65.6,63.2,29.90,NW,311,0.0,0.0,92,0.00,,,0.01,Wunderground v.1.15,2013-09-03 11:40:00,
2013-09-03 07:50:00,65.7,63.3,29.90,NW,311,0.0,0.0,92,0.00,,,0.01,Wunderground v.1.15,2013-09-03 11:50:00,
2013-09-03 07:55:00,65.8,63.7,29.90,NW,311,0.0,0.0,93,0.00,,,0.01,Wunderground v.1.15,2013-09-03 11:55:00,
2013-09-03 08:00:00,65.9,63.8,29.90,NW,311,0.0,0.0,93,0.00,,,0.01,Wunderground v.1.15,2013-09-03 12:00:00,
2013-09-03 08:10:00,66.1,64.0,29.90,NW,311,0.0,0.0,93,0.00,,,0.01,Wunderground v.1.15,2013-09-03 12:10:00,
2013-09-03 08:15:00,66.3,64.2,29.91,NW,311,0.0,0.0,93,0.00,,,0.01,Wunderground v.1.15,2013-09-03 12:15:00,
2013-09-03 08:20:00,66.3,64.2,29.91,NW,311,0.0,0.0,93,0.00,,,0.01,Wunderground v.1.15,2013-09-03 12:20:00,
2013-09-03 08:25:00,66.5,64.4,29.91,NW,311,0.0,0.0,93,0.00,,,0.01,Wunderground v.1.15,2013-09-03 12:25:00,
2013-09-03 08:35:00,66.8,64.7,29.92,NW,311,0.0,0.0,93,0.00,,,0.01,Wunderground v.1.15,2013-09-03 12:35:00,
2013-09-03 08:40:00,66.8,64.7,29.92,NW,311,0.0,0.0,93,0.00,,,0.01,Wunderground v.1.15,2013-09-03 12:40:00,
2013-09-03 08:50:00,67.1,65.0,29.91,NW,311,0.0,0.0,93,0.00,,,0.01,Wunderground v.1.15,2013-09-03 12:50:00,
2013-09-03 08:55:00,67.2,65.1,29.91,NW,311,0.0,0.0,93,0.00,,,0.01,Wunderground v.1.15,2013-09-03 12:55:00,
2013-09-03 09:00:00,67.1,65.0,29.92,NW,311,0.0,0.0,93,0.00,,,0.01,Wunderground v.1.15,2013-09-03 13:00:00,
2013-09-03 09:05:00,67.1,65.0,29.92,NW,311,0.0,0.0,93,0.00,,,0.01,Wunderground v.1.15,2013-09-03 13:05:00,
2013-09-03 09:10:00,67.0,64.9,29.92,NW,311,0.0,0.0,93,0.00,,,0.01,Wunderground v.1.15,2013-09-03 13:10:00,
2013-09-03 09:15:00,67.1,65.0,29.92,NW,311,0.0,0.0,93,0.00,,,0.01,Wunderground v.1.15,2013-09-03 13:15:00,
2013-09-03 09:25:00,67.4,65.3,29.92,NW,311,0.0,0.0,93,0.00,,,0.01,Wunderground v.1.15,2013-09-03 13:25:00,
2013-09-03 09:30:00,67.6,65.5,29.92,West,267,0.0,1.0,93,0.00,,,0.01,Wunderground v.1.15,2013-09-03 13:30:00,
2013-09-03 09:40:00,68.0,65.9,29.92,West,267,0.0,0.0,93,0.00,,,0.01,Wunderground v.1.15,2013-09-03 13:40:00,
2013-09-03 09:45:00,68.1,66.0,29.93,NW,317,1.0,2.0,93,0.00,,,0.01,Wunderground v.1.15,2013-09-03 13:45:00,
2013-09-03 09:50:00,68.2,65.8,29.93,SW,217,1.0,2.0,92,0.00,,,0.01,Wunderground v.1.15,2013-09-03 13:50:00,
2013-09-03 09:55:00,68.3,65.9,29.93,WNW,288,2.0,2.0,92,0.00,,,0.01,Wunderground v.1.15,2013-09-03 13:55:00,
2013-09-03 10:00:00,68.5,66.1,29.93,NW,311,2.0,2.0,92,0.00,,,0.01,Wunderground v.1.15,2013-09-03 14:00:00,
2013-09-03 10:10:00,69.0,66.3,29.93,West,279,1.0,1.0,91,0.00,,,0.01,Wunderground v.1.15,2013-09-03 14:10:00,
2013-09-03 10:15:00,69.1,66.4,29.93,WNW,290,1.0,1.0,91,0.00,,,0.01,Wunderground v.1.15,2013-09-03 14:15:00,
2013-09-03 10:25:00,69.2,66.1,29.94,NW,324,1.0,3.0,90,0.00,,,0.01,Wunderground v.1.15,2013-09-03 14:25:00,
2013-09-03 10:30:00,69.3,66.2,29.94,NW,306,1.0,2.0,90,0.00,,,0.01,Wunderground v.1.15,2013-09-03 14:30:00,
2013-09-03 10:40:00,69.8,66.7,29.94,NW,306,2.0,2.0,90,0.00,,,0.01,Wunderground v.1.15,2013-09-03 14:40:00,
2013-09-03 10:45:00,70.4,67.0,29.94,WNW,298,2.0,4.0,89,0.00,,,0.01,Wunderground v.1.15,2013-09-03 14:45:00,
2013-09-03 10:50:00,71.0,67.6,29.94,WNW,289,3.0,3.0,89,0.00,,,0.01,Wunderground v.1.15,2013-09-03 14:50:00,
2013-09-03 10:55:00,71.1,67.4,29.94,NW,311,3.0,3.0,88,0.00,,,0.01,Wunderground v.1.15,2013-09-03 14:55:00,
2013-09-03 11:00:00,71.1,67.4,29.95,WNW,302,3.0,3.0,88,0.00,,,0.01,Wunderground v.1.15,2013-09-03 15:00:00,
2013-09-03 11:10:00,71.0,67.3,29.95,WSW,244,2.0,2.0,88,0.00,,,0.01,Wunderground v.1.15,2013-09-03 15:10:00,
2013-09-03 11:15:00,71.3,67.6,29.95,WSW,246,2.0,5.0,88,0.00,,,0.01,Wunderground v.1.15,2013-09-03 15:15:00,
2013-09-03 11:25:00,70.9,67.2,29.94,WNW,297,3.0,5.0,88,0.00,,,0.01,Wunderground v.1.15,2013-09-03 15:25:00,
2013-09-03 11:30:00,71.1,67.4,29.94,NNW,329,2.0,2.0,88,0.00,,,0.01,Wunderground v.1.15,2013-09-03 15:30:00,
2013-09-03 11:35:00,71.6,67.9,29.94,WNW,298,2.0,4.0,88,0.00,,,0.01,Wunderground v.1.15,2013-09-03 15:35:00,
2013-09-03 11:40:00,72.7,68.9,29.94,NW,310,2.0,3.0,88,0.00,,,0.01,Wunderground v.1.15,2013-09-03 15:40:00,
2013-09-03 11:45:00,72.8,68.0,29.94,NNW,330,2.0,3.0,85,0.00,,,0.01,Wunderground v.1.15,2013-09-03 15:45:00,
2013-09-03 11:55:00,73.6,68.8,29.94,NNW,331,3.0,6.0,85,0.00,,,0.01,Wunderground v.1.15,2013-09-03 15:55:00,
2013-09-03 12:00:00,74.3,68.8,29.94,NW,304,2.0,3.0,83,0.00,,,0.01,Wunderground v.1.15,2013-09-03 16:00:00,
2013-09-03 12:05:00,74.7,69.2,29.94,NW,310,3.0,4.0,83,0.00,,,0.01,Wunderground v.1.15,2013-09-03 16:05:00,
2013-09-03 12:10:00,75.0,68.4,29.94,WNW,286,3.0,3.0,80,0.00,,,0.01,Wunderground v.1.15,2013-09-03 16:10:00,
2013-09-03 12:15:00,75.0,68.0,29.94,WNW,288,4.0,4.0,79,0.00,,,0.01,Wunderground v.1.15,2013-09-03 16:15:00,
2013-09-03 12:25:00,75.5,68.9,29.94,WSW,255,3.0,5.0,80,0.00,,,0.01,Wunderground v.1.15,2013-09-03 16:25:00,
2013-09-03 12:30:00,75.7,68.0,29.94,NW,311,4.0,4.0,77,0.00,,,0.01,Wunderground v.1.15,2013-09-03 16:30:00,
2013-09-03 12:40:00,76.0,68.3,29.93,NW,306,1.0,4.0,77,0.00,,,0.01,Wunderground v.1.15,2013-09-03 16:40:00,
2013-09-03 12:45:00,75.8,67.7,29.93,West,279,2.0,4.0,76,0.00,,,0.01,Wunderground v.1.15,2013-09-03 16:45:00,
2013-09-03 12:55:00,76.4,68.3,29.93,NW,321,4.0,4.0,76,0.00,,,0.01,Wunderground v.1.15,2013-09-03 16:55:00,
2013-09-03 13:05:00,76.9,68.4,29.93,WNW,297,3.0,4.0,75,0.00,,,0.01,Wunderground v.1.15,2013-09-03 17:05:00,
2013-09-03 13:10:00,76.6,66.9,29.93,SW,232,3.0,3.0,72,0.00,,,0.01,Wunderground v.1.15,2013-09-03 17:10:00,
2013-09-03 13:15:00,76.2,67.7,29.93,West,275,2.0,3.0,75,0.00,,,0.01,Wunderground v.1.15,2013-09-03 17:15:00,
2013-09-03 13:25:00,76.0,67.1,29.93,WNW,294,5.0,8.0,74,0.00,,,0.01,Wunderground v.1.15,2013-09-03 17:25:00,
2013-09-03 13:30:00,76.5,68.0,29.93,NW,311,6.0,6.0,75,0.00,,,0.01,Wunderground v.1.15,2013-09-03 17:30:00,
2013-09-03 13:40:00,77.6,67.9,29.93,WNW,285,5.0,5.0,72,0.00,,,0.01,Wunderground v.1.15,2013-09-03 17:40:00,
2013-09-03 13:45:00,77.2,67.9,29.93,West,269,4.0,5.0,73,0.00,,,0.01,Wunderground v.1.15,2013-09-03 17:45:00,
2013-09-03 13:55:00,76.6,65.7,29.92,WNW,282,3.0,3.0,69,0.00,,,0.01,Wunderground v.1.15,2013-09-03 17:55:00,
2013-09-03 14:00:00,77.4,66.0,29.93,SW,219,4.0,4.0,68,0.00,,,0.01,Wunderground v.1.15,2013-09-03 18:00:00,
2013-09-03 14:05:00,77.8,66.8,29.93,NW,317,4.0,4.0,69,0.00,,,0.01,Wunderground v.1.15,2013-09-03 18:05:00,
2013-09-03 14:10:00,77.7,65.9,29.92,NNW,345,4.0,4.0,67,0.00,,,0.01,Wunderground v.1.15,2013-09-03 18:10:00,
2013-09-03 14:20:00,77.4,64.3,29.92,NW,306,7.0,7.0,64,0.00,,,0.01,Wunderground v.1.15,2013-09-03 18:20:00,
2013-09-03 14:25:00,77.8,66.0,29.93,West,260,7.0,7.0,67,0.00,,,0.01,Wunderground v.1.15,2013-09-03 18:25:00,
2013-09-03 14:30:00,77.7,65.9,29.92,West,276,6.0,6.0,67,0.00,,,0.01,Wunderground v.1.15,2013-09-03 18:30:00,
2013-09-03 14:40:00,78.0,64.8,29.92,WNW,289,4.0,6.0,64,0.00,,,0.01,Wunderground v.1.15,2013-09-03 18:40:00,
2013-09-03 14:45:00,78.2,64.1,29.92,West,270,4.0,6.0,62,0.00,,,0.01,Wunderground v.1.15,2013-09-03 18:45:00,
2013-09-03 14:50:00,78.5,64.9,29.92,NW,306,4.0,4.0,63,0.00,,,0.01,Wunderground v.1.15,2013-09-03 18:50:00,
2013-09-03 14:55:00,78.7,66.8,29.92,West,261,3.0,4.0,67,0.00,,,0.01,Wunderground v.1.15,2013-09-03 18:55:00,
2013-09-03 15:00:00,79.0,66.7,29.92,WNW,298,3.0,5.0,66,0.00,,,0.01,Wunderground v.1.15,2013-09-03 19:00:00,
2013-09-03 15:10:00,77.3,64.6,29.92,WNW,284,5.0,6.0,65,0.00,,,0.01,Wunderground v.1.15,2013-09-03 19:10:00,
2013-09-03 15:15:00,77.8,63.3,29.92,SW,234,6.0,8.0,61,0.00,,,0.01,Wunderground v.1.15,2013-09-03 19:15:00,
2013-09-03 15:25:00,77.9,62.9,29.92,WSW,252,6.0,10.0,60,0.00,,,0.01,Wunderground v.1.15,2013-09-03 19:25:00,
2013-09-03 15:35:00,78.1,66.7,29.91,SW,232,3.0,5.0,68,0.00,,,0.01,Wunderground v.1.15,2013-09-03 19:35:00,
2013-09-03 15:40:00,78.2,65.0,29.91,WNW,297,3.0,5.0,64,0.00,,,0.01,Wunderground v.1.15,2013-09-03 19:40:00,
2013-09-03 15:45:00,78.7,63.6,29.91,NW,305,3.0,5.0,60,0.00,,,0.01,Wunderground v.1.15,2013-09-03 19:45:00,
2013-09-03 15:55:00,78.7,65.0,29.91,West,279,4.0,6.0,63,0.00,,,0.01,Wunderground v.1.15,2013-09-03 19:55:00,
2013-09-03 16:00:00,78.5,63.0,29.91,WNW,283,4.0,5.0,59,0.00,,,0.01,Wunderground v.1.15,2013-09-03 20:00:00,
2013-09-03 16:10:00,78.2,62.2,29.91,SW,231,4.0,4.0,58,0.00,,,0.01,Wunderground v.1.15,2013-09-03 20:10:00,
2013-09-03 16:15:00,78.2,65.0,29.90,WSW,247,3.0,4.0,64,0.00,,,0.01,Wunderground v.1.15,2013-09-03 20:15:00,
2013-09-03 16:20:00,78.1,65.8,29.91,WNW,282,2.0,8.0,66,0.00,,,0.01,Wunderground v.1.15,2013-09-03 20:20:00,
2013-09-03 16:25:00,77.7,64.5,29.91,SW,229,3.0,8.0,64,0.00,,,0.01,Wunderground v.1.15,2013-09-03 20:25:00,
2013-09-03 16:30:00,77.7,65.9,29.91,SW,223,4.0,4.0,67,0.00,,,0.01,Wunderground v.1.15,2013-09-03 20:30:00,
2013-09-03 16:40:00,77.2,63.2,29.90,SW,232,4.0,4.0,62,0.00,,,0.01,Wunderground v.1.15,2013-09-03 20:40:00,
2013-09-03 16:45:00,77.6,64.9,29.91,SW,235,2.0,4.0,65,0.00,,,0.01,Wunderground v.1.15,2013-09-03 20:45:00,
2013-09-03 16:55:00,77.4,65.1,29.91,WSW,250,3.0,3.0,66,0.00,,,0.01,Wunderground v.1.15,2013-09-03 20:55:00,
2013-09-03 17:00:00,76.9,64.7,29.91,West,280,2.0,2.0,66,0.00,,,0.01,Wunderground v.1.15,2013-09-03 21:00:00,
2013-09-03 17:05:00,76.9,65.5,29.91,WSW,248,2.0,4.0,68,0.00,,,0.01,Wunderground v.1.15,2013-09-03 21:05:00,
2013-09-03 17:10:00,76.7,64.0,29.91,West,268,3.0,7.0,65,0.00,,,0.01,Wunderground v.1.15,2013-09-03 21:10:00,
2013-09-03 17:15:00,76.7,63.2,29.91,WSW,247,4.0,7.0,63,0.00,,,0.01,Wunderground v.1.15,2013-09-03 21:15:00,
2013-09-03 17:25:00,75.9,64.6,29.92,WSW,254,4.0,4.0,68,0.00,,,0.01,Wunderground v.1.15,2013-09-03 21:25:00,
2013-09-03 17:30:00,75.3,64.4,29.91,West,269,3.0,7.0,69,0.00,,,0.01,Wunderground v.1.15,2013-09-03 21:30:00,
2013-09-03 17:40:00,75.5,63.3,29.92,West,269,5.0,6.0,66,0.00,,,0.01,Wunderground v.1.15,2013-09-03 21:40:00,
2013-09-03 17:45:00,75.5,64.2,29.92,NW,317,5.0,6.0,68,0.00,,,0.01,Wunderground v.1.15,2013-09-03 21:45:00,
2013-09-03 17:50:00,75.2,64.3,29.92,SW,231,4.0,4.0,69,0.00,,,0.01,Wunderground v.1.15,2013-09-03 21:50:00,
2013-09-03 17:55:00,75.3,63.6,29.92,West,271,3.0,4.0,67,0.00,,,0.01,Wunderground v.1.15,2013-09-03 21:55:00,
2013-09-03 18:00:00,74.8,64.4,29.92,West,262,3.0,3.0,70,0.00,,,0.01,Wunderground v.1.15,2013-09-03 22:00:00,
2013-09-03 18:10:00,74.3,63.1,29.92,WSW,251,4.0,7.0,68,0.00,,,0.01,Wunderground v.1.15,2013-09-03 22:10:00,
2013-09-03 18:15:00,74.4,63.6,29.92,West,281,4.0,7.0,69,0.00,,,0.01,Wunderground v.1.15,2013-09-03 22:15:00,
2013-09-03 18:25:00,74.4,64.4,29.92,West,266,3.0,3.0,71,0.00,,,0.01,Wunderground v.1.15,2013-09-03 22:25:00,
2013-09-03 18:30:00,74.0,64.0,29.92,WNW,300,2.0,2.0,71,0.00,,,0.01,Wunderground v.1.15,2013-09-03 22:30:00,
2013-09-03 18:35:00,73.5,64.7,29.92,WSW,257,1.0,2.0,74,0.00,,,0.01,Wunderground v.1.15,2013-09-03 22:35:00,
2013-09-03 18:40:00,73.0,64.6,29.93,WSW,257,0.0,0.0,75,0.00,,,0.01,Wunderground v.1.15,2013-09-03 22:40:00,
2013-09-03 18:45:00,72.8,64.0,29.93,WSW,257,0.0,0.0,74,0.00,,,0.01,Wunderground v.1.15,2013-09-03 22:45:00,
2013-09-03 18:55:00,72.3,63.9,29.93,WSW,257,0.0,0.0,75,0.00,,,0.01,Wunderground v.1.15,2013-09-03 22:55:00,
2013-09-03 19:00:00,72.2,64.2,29.93,WSW,257,0.0,0.0,76,0.00,,,0.01,Wunderground v.1.15,2013-09-03 23:00:00,
2013-09-03 19:10:00,71.0,64.2,29.93,WNW,296,0.0,0.0,79,0.00,,,0.01,Wunderground v.1.15,2013-09-03 23:10:00,
2013-09-03 19:20:00,69.8,63.7,29.94,WNW,296,0.0,0.0,81,0.00,,,0.01,Wunderground v.1.15,2013-09-03 23:20:00,
2013-09-03 19:25:00,69.2,63.5,29.94,WNW,296,0.0,0.0,82,0.00,,,0.01,Wunderground v.1.15,2013-09-03 23:25:00,
2013-09-03 19:30:00,68.7,63.7,29.94,WNW,296,0.0,0.0,84,0.00,,,0.01,Wunderground v.1.15,2013-09-03 23:30:00,
2013-09-03 19:40:00,67.6,62.9,29.95,WNW,296,0.0,0.0,85,0.00,,,0.01,Wunderground v.1.15,2013-09-03 23:40:00,
2013-09-03 19:45:00,67.2,62.9,29.95,WNW,296,0.0,0.0,86,0.00,,,0.01,Wunderground v.1.15,2013-09-03 23:45:00,
2013-09-03 19:55:00,66.4,62.4,29.95,WNW,296,0.0,0.0,87,0.00,,,0.01,Wunderground v.1.15,2013-09-03 23:55:00,
2013-09-03 20:00:00,66.0,62.3,29.96,WNW,296,0.0,0.0,88,0.00,,,0.01,Wunderground v.1.15,2013-09-04 00:00:00,
2013-09-03 20:05:00,65.6,61.9,29.96,WNW,296,0.0,0.0,88,0.00,,,0.01,Wunderground v.1.15,2013-09-04 00:05:00,
2013-09-03 20:10:00,65.3,61.7,29.97,WNW,296,0.0,0.0,88,0.00,,,0.01,Wunderground v.1.15,2013-09-04 00:10:00,
2013-09-03 20:15:00,64.9,61.3,29.97,WNW,296,0.0,0.0,88,0.00,,,0.01,Wunderground v.1.15,2013-09-04 00:15:00,
2013-09-03 20:25:00,64.2,60.9,29.97,WNW,296,0.0,0.0,89,0.00,,,0.01,Wunderground v.1.15,2013-09-04 00:25:00,
2013-09-03 20:30:00,64.1,60.8,29.97,WNW,296,0.0,0.0,89,0.00,,,0.01,Wunderground v.1.15,2013-09-04 00:30:00,
2013-09-03 20:40:00,63.6,60.3,29.97,WNW,296,0.0,0.0,89,0.00,,,0.01,Wunderground v.1.15,2013-09-04 00:40:00,
2013-09-03 20:45:00,63.4,60.1,29.98,WNW,296,0.0,0.0,89,0.00,,,0.01,Wunderground v.1.15,2013-09-04 00:45:00,
2013-09-03 20:50:00,63.2,60.2,29.98,WNW,296,0.0,0.0,90,0.00,,,0.01,Wunderground v.1.15,2013-09-04 00:50:00,
2013-09-03 20:55:00,62.9,59.6,29.98,WNW,296,0.0,0.0,89,0.00,,,0.01,Wunderground v.1.15,2013-09-04 00:55:00,
2013-09-03 21:00:00,62.7,59.7,29.99,WNW,296,0.0,0.0,90,0.00,,,0.01,Wunderground v.1.15,2013-09-04 01:00:00,
2013-09-03 21:10:00,62.3,59.3,29.99,WNW,296,0.0,0.0,90,0.00,,,0.01,Wunderground v.1.15,2013-09-04 01:10:00,
2013-09-03 21:15:00,62.1,59.1,29.99,WNW,296,0.0,0.0,90,0.00,,,0.01,Wunderground v.1.15,2013-09-04 01:15:00,
2013-09-03 21:25:00,61.7,58.7,30.00,WNW,296,0.0,0.0,90,0.00,,,0.01,Wunderground v.1.15,2013-09-04 01:25:00,
2013-09-03 21:30:00,61.5,58.5,30.00,WNW,296,0.0,0.0,90,0.00,,,0.01,Wunderground v.1.15,2013-09-04 01:30:00,
2013-09-03 21:35:00,61.4,58.4,30.00,WNW,296,0.0,0.0,90,0.00,,,0.01,Wunderground v.1.15,2013-09-04 01:35:00,
2013-09-03 21:40:00,61.2,58.2,30.00,WNW,296,0.0,0.0,90,0.00,,,0.01,Wunderground v.1.15,2013-09-04 01:40:00,
2013-09-03 21:45:00,61.1,58.1,30.00,WNW,296,0.0,0.0,90,0.00,,,0.01,Wunderground v.1.15,2013-09-04 01:45:00,
2013-09-03 21:55:00,60.8,57.8,30.01,WNW,296,0.0,0.0,90,0.00,,,0.01,Wunderground v.1.15,2013-09-04 01:55:00,
2013-09-03 22:00:00,60.7,58.1,30.01,WNW,296,0.0,0.0,91,0.00,,,0.01,Wunderground v.1.15,2013-09-04 02:00:00,
2013-09-03 22:10:00,60.4,57.8,30.02,WNW,296,0.0,0.0,91,0.00,,,0.01,Wunderground v.1.15,2013-09-04 02:10:00,
2013-09-03 22:15:00,60.2,57.6,30.02,WNW,296,0.0,0.0,91,0.00,,,0.01,Wunderground v.1.15,2013-09-04 02:15:00,
2013-09-03 22:20:00,60.2,57.6,30.02,WNW,296,0.0,0.0,91,0.00,,,0.01,Wunderground v.1.15,2013-09-04 02:20:00,
2013-09-03 22:25:00,60.0,57.4,30.02,WNW,296,0.0,0.0,91,0.00,,,0.01,Wunderground v.1.15,2013-09-04 02:25:00,
2013-09-03 22:30:00,59.8,57.2,30.03,WNW,296,0.0,0.0,91,0.00,,,0.01,Wunderground v.1.15,2013-09-04 02:30:00,
2013-09-03 22:40:00,59.6,57.0,30.03,WNW,296,0.0,0.0,91,0.00,,,0.01,Wunderground v.1.15,2013-09-04 02:40:00,
2013-09-03 22:50:00,59.4,56.8,30.03,WNW,296,0.0,0.0,91,0.00,,,0.01,Wunderground v.1.15,2013-09-04 02:50:00,
2013-09-03 22:55:00,59.3,56.7,30.03,WNW,296,0.0,0.0,91,0.00,,,0.01,Wunderground v.1.15,2013-09-04 02:55:00,
2013-09-03 23:00:00,59.3,56.7,30.03,WNW,296,0.0,0.0,91,0.00,,,0.01,Wunderground v.1.15,2013-09-04 03:00:00,
2013-09-03 23:10:00,59.0,56.4,30.03,WNW,296,0.0,0.0,91,0.00,,,0.01,Wunderground v.1.15,2013-09-04 03:10:00,
2013-09-03 23:15:00,58.9,56.3,30.03,WNW,296,0.0,0.0,91,0.00,,,0.01,Wunderground v.1.15,2013-09-04 03:15:00,
2013-09-03 23:20:00,58.8,56.2,30.03,WNW,296,0.0,0.0,91,0.00,,,0.01,Wunderground v.1.15,2013-09-04 03:20:00,
2013-09-03 23:25:00,58.6,56.0,30.03,WNW,296,0.0,0.0,91,0.00,,,0.01,Wunderground v.1.15,2013-09-04 03:25:00,
2013-09-03 23:30:00,58.5,55.9,30.03,WNW,296,0.0,0.0,91,0.00,,,0.01,Wunderground v.1.15,2013-09-04 03:30:00,
2013-09-03 23:40:00,58.2,55.6,30.03,WNW,296,0.0,0.0,91,0.00,,,0.01,Wunderground v.1.15,2013-09-04 03:40:00,
2013-09-03 23:45:00,58.1,55.5,30.04,WNW,296,0.0,0.0,91,0.00,,,0.01,Wunderground v.1.15,2013-09-04 03:45:00,
2013-09-03 23:55:00,58.0,55.4,30.03,WNW,296,0.0,0.0,91,0.00,,,0.01,Wunderground v.1.15,2013-09-04 03:55:00,